Regional Weather Roundup
Issued by NWS

Home | Current Version | Previous Version | Graphics & Text | Print | Product List | Glossary On
Versions: 1 2 3 4 5 6 7 8 9 10 11 12 13 14 15 16 17 18 19 20 21 22 23 24 25 26 27 28 29 30 31 32 33 34 35 36 37 38 39 40 41 42 43 44 45 46 47 48 49 50
452
ASUS43 KFSD 301002
RWRSD

WEATHER ROUNDUP FOR SOUTH DAKOTA
NATIONAL WEATHER SERVICE SIOUX FALLS SD
500 AM CDT SUN APR 30 2017

NOTE: "FAIR" INDICATES FEW OR NO CLOUDS BELOW 12,000 FEET WITH NO
SIGNIFICANT WEATHER AND/OR OBSTRUCTIONS TO VISIBILITY.


SDZ001>005-009-010-012>017-301100-
NORTHWEST AND NORTH CENTRAL SOUTH DAKOTA

CITY           SKY/WX    TMP DP  RH WIND       PRES   REMARKS
BUFFALO          N/A     32  22  66 NW7       30.02F WCI  26
FAITH            N/A     33  22  63 W3        30.10S
MOBRIDGE       CLEAR     29  20  69 CALM      30.09S
$$

SDZ012>016-024>037-041>051-057-063-072>074-301100-
SOUTHWEST AND SOUTH CENTRAL SOUTH DAKOTA

CITY           SKY/WX    TMP DP  RH WIND       PRES   REMARKS
RAPID CTY ARPT CLEAR     33  21  61 NW10      30.08F WCI  25
PIERRE         PTCLDY    32  23  69 N3        30.08F
CUSTER         CLEAR     27  14  58 NW6       30.07S WCI  20
ELLSWORTH AFB  CLEAR     29  21  73 NW12      30.07F WCI  19
PHILIP         CLEAR     24  21  88 W6        30.10R WCI  17
PINE RIDGE     CLEAR     25  23  92 CALM      30.07S
SPEARFISH      FAIR      30  19  64 SW10      30.09F WCI  21
WINNER         FAIR      34  26  72 NW6       30.05F WCI  29
$$

SDZ004>011-016>023-039-040-301100-
NORTHEAST SOUTH DAKOTA

CITY           SKY/WX    TMP DP  RH WIND       PRES   REMARKS
ABERDEEN       CLOUDY    32  25  75 NE6       30.13R WCI  26
WATERTOWN      MOCLDY    38  21  50 NE8       30.08R
BROOKINGS      MOCLDY    42  24  49 NE6       30.05F
SISSETON         N/A     37  30  75 N3        30.12S
$$

SDZ017-020-022-023-036>040-048>070-301100-
SOUTHEAST SOUTH DAKOTA

CITY           SKY/WX    TMP DP  RH WIND       PRES   REMARKS
SIOUX FALLS    MOCLDY    44  29  55 NE12      30.00F
HURON          CLOUDY    39  28  64 N8        30.07F
CHAMBERLAIN    CLOUDY    43  28  54 NW10      30.05F
MITCHELL       MOCLDY    41  30  65 N6        30.05F
YANKTON        CLOUDY    45  27  49 NE12      29.98F
$$

ABBREVIATIONS USED IN REMARKS
   TC - TEMPERATURE IN CELSIUS
  WCI - WIND CHILL INDEX
   HX - HEAT INDEX
  VSB - VISIBILITY





USA.gov is the U.S. government's official web portal to all federal, state and local government web resources and services.